Back to catalog

THORAD DELTA 1 DEB

AliveSSO
NORAD 8563·DEBRIS·🇺🇸 United States

Launched Nov 15, 1974 from Vandenberg Space Force Base

Loading…

Next Passes (next 24 hours)

TLE

FreshSource: Space-Track

Epoch: Sep 14, 2026, 05:00 UTC

1 08563U 74089DA  26257.20871994  .00000058  00000-0  62534-3 0  9998
2 08563 101.4087 348.4977 0078766  17.3196  11.1030 12.53644965367252

Track THORAD DELTA 1 DEB in real time with AllMySat

Download on the App Store